Location: Audruicq
(50.8780°N, 2.0797°E)
Time: 22:38:17
(UTC+00:00)

Cosmos 1464 Rocket - Pass Details

Date: 15 May 2026
Orbit: 952 x 1000 km, 82.9° (Epoch: 10 June)

Event Time Altitude Azimuth Distance (km) Brightness Sun altitude
Exits shadow 21:18:40 12° 174° (S) 2,502 5.6 -12.8°
Maximum altitude 21:24:14 65° 94° (E) 1,051 4.0 -13.3°
Drops below altitude 10° 21:30:23 10° 14° (NNE) 2,720 6.9 -13.8°
Sets 21:32:55 0° 12° (NNE) 3,678 7.7 -14.0°
